This is the latest recevied weather packets stored in our database for station/object K1JO. If no packets are shown the sender has not sent any weather packets the latest 10 day(s).
| Time | Temp. | Humidity | Pressure | Rain* | Wind** | Luminosity | Snow |
|---|---|---|---|---|---|---|---|
| 1777991009 | 20° C | 55% | 1003.1 hPa | 0 mm | - | 667 W/m² | - |
| 1777990706 | 20° C | 56% | 1003.2 hPa | 0 mm | - | 656 W/m² | - |
| 1777990404 | 20° C | 57% | 1003.3 hPa | 0 mm | - | 648 W/m² | - |
| 1777989796 | 19.44° C | 56% | 1003.3 hPa | 0 mm | - | 617 W/m² | - |
| 1777989494 | 19.44° C | 57% | 1003.4 hPa | 0 mm | - | 630 W/m² | - |
| 1777989189 | 18.89° C | 57% | 1003.4 hPa | 0 mm | - | 616 W/m² | - |
| 1777988886 | 18.89° C | 57% | 1003.7 hPa | 0 mm | - | 447 W/m² | - |
| 1777988583 | 18.89° C | 57% | 1003.4 hPa | 0 mm | - | 521 W/m² | - |
| 1777988279 | 18.89° C | 59% | 1003.6 hPa | 0 mm | - | 548 W/m² | - |
| 1777987976 | 18.33° C | 60% | 1003.6 hPa | 0 mm | - | 572 W/m² | - |
| 1777987672 | 18.33° C | 59% | 1003.7 hPa | 0 mm | - | 510 W/m² | - |
| 1777987369 | 18.33° C | 60% | 1003.9 hPa | 0 mm | - | 544 W/m² | - |
| 1777987067 | 17.78° C | 61% | 1003.7 hPa | 0 mm | - | 454 W/m² | - |
| 1777986764 | 17.22° C | 60% | 1003.9 hPa | 0 mm | - | 457 W/m² | - |
| 1777986461 | 17.22° C | 60% | 1004 hPa | 0 mm | - | 453 W/m² | - |
| 1777986160 | 17.22° C | 60% | 1003.7 hPa | 0 mm | - | 450 W/m² | - |
| 1777985856 | 17.22° C | 64% | 1003.9 hPa | 0 mm | - | 401 W/m² | - |
| 1777985554 | 17.22° C | 63% | 1004 hPa | 0 mm | - | 384 W/m² | - |
| 1777985250 | 17.22° C | 62% | 1004.2 hPa | 0 mm | - | 465 W/m² | - |
| 1777984947 | 16.67° C | 63% | 1003.9 hPa | 0 mm | - | 412 W/m² | - |
| 1777984643 | 16.11° C | 65% | 1004.1 hPa | 0 mm | - | 369 W/m² | - |
| 1777984340 | 15.56° C | 66% | 1004 hPa | 0 mm | - | 382 W/m² | - |
| 1777984036 | 15.56° C | 68% | 1004.2 hPa | 0 mm | - | 338 W/m² | - |
| 1777983734 | 15.56° C | 68% | 1003.9 hPa | 0 mm | - | 380 W/m² | - |
| 1777983430 | 15° C | 67% | 1004 hPa | 0 mm | - | 355 W/m² | - |
* Rain latest hour (hover to see other rain measurements)
** Current wind speed in m/s (hover to see current wind gust speed)